Wise, VA

6:25 PM EST on November 15, 2019 (GMT -0500)
Lonesome Pine

Weather History for KLNP - September, 2019

Change the Weather History Date:

Thursday, September 19, 2019

  Actual Average Record
Temperature  
Mean Temperature 64 °F -  
Max Temperature 69 °F 71 °F 86 °F (2005)
Min Temperature 60 °F 52 °F 44 °F (1996)
Growing Degree Days 14 (Base 50)    
Moisture  
Dew Point 54 °F    
Average Humidity 69    
Maximum Humidity 77    
Minimum Humidity 56    
Precipitation  
Precipitation 0.00 in - - ()
Sea Level Pressure  
Sea Level Pressure 30.26 in    
Wind  
Wind Speed 8 mph (SSE)    
Max Wind Speed 14 mph    
Max Gust Speed 17 mph    
Visibility 10 miles    
Events      
Averages and records for this station are not official NWS values.
T = Trace of Precipitation, MM = Missing Value Source: NWS Daily Summary

Daily Weather History Graph

Daily Weather History Graph

Search for Another Location

Airport or City:

Astronomy

Sep. 19, 2019 Rise Set
Actual Time 7:15 AM EDT 7:31 PM EDT
Civil Twilight 6:49 AM EDT 7:57 PM EDT
Nautical Twilight 6:18 AM EDT 8:28 PM EDT
Astronomical Twilight 5:47 AM EDT 8:59 PM EDT
Moon 10:47 PM EDT (9/19) 12:10 PM EDT (9/19)
Length of Visible Light 13h 08m
Length of Day
12h 16m
Waning Gibbous, 74% of the Moon is Illuminated
Sep 19
Waning Gibbous
Sep 21
Last Quarter
Sep 28
New
Oct 5
First Quarter
Oct 13
Full

Hourly Weather History & Observations

Time (EDT) Temp. Dew Point Humidity Pressure Visibility Wind Dir Wind Speed Gust Speed Precip Events Conditions
12:15 AM 62.6 °F 55.4 °F 77% 30.21 in 10.0 mi SSE 8.1 mph - N/A   Scattered Clouds
12:35 AM 62.6 °F 55.4 °F 77% 30.22 in 10.0 mi SSE 8.1 mph - N/A   Scattered Clouds
12:55 AM 62.6 °F 55.4 °F 77% 30.22 in 10.0 mi SSE 6.9 mph - N/A   Scattered Clouds
1:15 AM 62.6 °F 55.4 °F 77% 30.21 in 10.0 mi SSE 6.9 mph - N/A   Clear
1:35 AM 62.6 °F 55.4 °F 77% 30.21 in 10.0 mi SSE 5.8 mph - N/A   Clear
1:55 AM 62.6 °F 53.6 °F 72% 30.22 in 10.0 mi SSE 6.9 mph - N/A   Clear
2:35 AM 62.6 °F 53.6 °F 72% 30.21 in 10.0 mi SSE 8.1 mph - N/A   Clear
2:55 AM 62.6 °F 53.6 °F 72% 30.21 in 10.0 mi SSE 5.8 mph - N/A   Clear
3:15 AM 62.6 °F 53.6 °F 72% 30.22 in 10.0 mi SSE 5.8 mph - N/A   Clear
3:35 AM 62.6 °F 53.6 °F 72% 30.22 in 10.0 mi South 8.1 mph - N/A   Clear
3:55 AM 62.6 °F 53.6 °F 72% 30.22 in 10.0 mi South 6.9 mph - N/A   Clear
4:15 AM 62.6 °F 53.6 °F 72% 30.22 in 10.0 mi South 6.9 mph - N/A   Clear
4:35 AM 62.6 °F 53.6 °F 72% 30.22 in 10.0 mi SSE 10.4 mph 16.1 mph N/A   Clear
4:55 AM 62.6 °F 53.6 °F 72% 30.22 in 10.0 mi SSE 8.1 mph - N/A   Scattered Clouds
5:15 AM 62.6 °F 53.6 °F 72% 30.22 in 10.0 mi SSE 9.2 mph - N/A   Overcast
5:35 AM 62.6 °F 53.6 °F 72% 30.22 in 10.0 mi SSE 9.2 mph - N/A   Mostly Cloudy
5:55 AM 60.8 °F 53.6 °F 77% 30.22 in 10.0 mi South 9.2 mph - N/A   Scattered Clouds
6:15 AM 60.8 °F 53.6 °F 77% 30.22 in 10.0 mi South 8.1 mph - N/A   Clear
6:35 AM 60.8 °F 53.6 °F 77% 30.23 in 10.0 mi South 6.9 mph - N/A   Clear
6:55 AM 60.8 °F 53.6 °F 77% 30.23 in 10.0 mi South 8.1 mph - N/A   Scattered Clouds
7:15 AM 60.8 °F 53.6 °F 77% 30.24 in 10.0 mi South 5.8 mph - N/A   Mostly Cloudy
7:35 AM 60.8 °F 53.6 °F 77% 30.24 in 10.0 mi South 8.1 mph - N/A   Scattered Clouds
7:55 AM 60.8 °F 53.6 °F 77% 30.24 in 10.0 mi South 8.1 mph - N/A   Clear
8:15 AM 60.8 °F 53.6 °F 77% 30.25 in 10.0 mi South 5.8 mph - N/A   Scattered Clouds
8:35 AM 62.6 °F 53.6 °F 72% 30.25 in 10.0 mi South 6.9 mph - N/A   Scattered Clouds
8:55 AM 62.6 °F 53.6 °F 72% 30.25 in 10.0 mi South 8.1 mph 17.3 mph N/A   Scattered Clouds
9:15 AM 62.6 °F 53.6 °F 72% 30.26 in 10.0 mi South 9.2 mph - N/A   Clear
9:35 AM 64.4 °F 53.6 °F 68% 30.27 in 10.0 mi South 8.1 mph 16.1 mph N/A   Clear
9:55 AM 64.4 °F 53.6 °F 68% 30.27 in 10.0 mi South 12.7 mph - N/A   Clear
10:15 AM 64.4 °F 53.6 °F 68% 30.27 in 10.0 mi South 13.8 mph - N/A   Clear
10:35 AM 66.2 °F 53.6 °F 64% 30.28 in 10.0 mi South 10.4 mph - N/A   Scattered Clouds
10:55 AM 68.0 °F 53.6 °F 60% 30.28 in 10.0 mi South 10.4 mph - N/A   Scattered Clouds
11:15 AM 68.0 °F 53.6 °F 60% 30.29 in 10.0 mi South 12.7 mph 16.1 mph N/A   Mostly Cloudy
11:35 AM 68.0 °F 53.6 °F 60% 30.29 in 10.0 mi South 6.9 mph - N/A   Overcast
11:55 AM 69.8 °F 53.6 °F 56% 30.29 in 10.0 mi South 10.4 mph 16.1 mph N/A   Mostly Cloudy
12:15 PM 69.8 °F 53.6 °F 56% 30.29 in 10.0 mi South 10.4 mph - N/A   Overcast
12:35 PM 69.8 °F 53.6 °F 56% 30.29 in 10.0 mi South 9.2 mph - N/A   Overcast
12:55 PM 68.0 °F 53.6 °F 60% 30.29 in 10.0 mi South 9.2 mph - N/A   Overcast
1:15 PM 68.0 °F 53.6 °F 60% 30.29 in 10.0 mi South 9.2 mph - N/A   Overcast
1:35 PM 68.0 °F 53.6 °F 60% 30.29 in 10.0 mi South 9.2 mph - N/A   Overcast
1:55 PM 66.2 °F 53.6 °F 64% 30.29 in 10.0 mi SSE 9.2 mph - N/A   Overcast
2:15 PM 68.0 °F 53.6 °F 60% 30.28 in 10.0 mi South 6.9 mph - N/A   Overcast
2:35 PM 68.0 °F 53.6 °F 60% 30.28 in 10.0 mi SSE 6.9 mph - N/A   Overcast
2:55 PM 68.0 °F 53.6 °F 60% 30.28 in 10.0 mi SSE 6.9 mph - N/A   Overcast
3:15 PM 69.8 °F 53.6 °F 56% 30.28 in 10.0 mi SE 8.1 mph - N/A   Overcast
3:35 PM 68.0 °F 53.6 °F 60% 30.28 in 10.0 mi SSE 5.8 mph - N/A   Overcast
3:55 PM 68.0 °F 55.4 °F 64% 30.28 in 10.0 mi SSE 9.2 mph - N/A   Overcast
4:15 PM 68.0 °F 55.4 °F 64% 30.27 in 10.0 mi SE 8.1 mph - N/A   Overcast
4:35 PM 68.0 °F 55.4 °F 64% 30.27 in 10.0 mi SSE 6.9 mph - N/A   Overcast
4:55 PM 68.0 °F 55.4 °F 64% 30.27 in 10.0 mi South 6.9 mph - N/A   Overcast
5:15 PM 66.2 °F 55.4 °F 68% 30.27 in 10.0 mi South 4.6 mph - N/A   Overcast
5:35 PM 66.2 °F 55.4 °F 68% 30.27 in 10.0 mi SSE 6.9 mph - N/A   Overcast
5:55 PM 66.2 °F 55.4 °F 68% 30.26 in 10.0 mi South 9.2 mph - N/A   Overcast
6:15 PM 68.0 °F 55.4 °F 64% 30.27 in 10.0 mi South 5.8 mph - N/A   Overcast
6:35 PM 66.2 °F 55.4 °F 68% 30.27 in 10.0 mi South 5.8 mph - N/A   Overcast
6:55 PM 64.4 °F 55.4 °F 73% 30.26 in 10.0 mi South 4.6 mph - N/A   Scattered Clouds
7:15 PM 64.4 °F 55.4 °F 73% 30.26 in 10.0 mi SSE 4.6 mph - N/A   Clear
7:35 PM 64.4 °F 53.6 °F 68% 30.26 in 10.0 mi South 4.6 mph - N/A   Clear
7:55 PM 62.6 °F 53.6 °F 72% 30.27 in 10.0 mi South 5.8 mph - N/A   Clear
8:15 PM 62.6 °F 53.6 °F 72% 30.26 in 10.0 mi South 6.9 mph - N/A   Clear
8:35 PM 62.6 °F 53.6 °F 72% 30.27 in 10.0 mi South 4.6 mph - N/A   Clear
8:55 PM 62.6 °F 53.6 °F 72% 30.27 in 10.0 mi South 5.8 mph - N/A   Clear
9:15 PM 62.6 °F 53.6 °F 72% 30.27 in 10.0 mi South 6.9 mph - N/A   Clear
9:35 PM 62.6 °F 53.6 °F 72% 30.27 in 10.0 mi South 5.8 mph - N/A   Clear
9:55 PM 62.6 °F 53.6 °F 72% 30.28 in 10.0 mi South 5.8 mph - N/A   Clear
10:15 PM 62.6 °F 53.6 °F 72% 30.29 in 10.0 mi SSE 8.1 mph - N/A   Clear
10:55 PM 60.8 °F 53.6 °F 77% 30.30 in 10.0 mi South 6.9 mph - N/A   Clear
11:15 PM 60.8 °F 53.6 °F 77% 30.29 in 10.0 mi South 5.8 mph - N/A   Clear
11:35 PM 60.8 °F 53.6 °F 77% 30.29 in 10.0 mi South 6.9 mph - N/A   Clear
11:55 PM 60.8 °F 51.8 °F 72% 30.29 in 10.0 mi South 8.1 mph - N/A   Scattered Clouds